| time (UTC) | temp F | wind direction | speed knots | gust knots | rain 1hr in | rain 24hr in | rain mn in | humidity % | barometer mb |
| 20260504204528 | 80 | 236 | 2.6 | 12.2 | 0.00 | 0.00 | 0.00 | 40 | 1010.5 |
| 20260504203011 | 80 | 254 | 0.0 | 6.1 | 0.00 | 0.00 | 0.00 | 42 | 1010.8 |
| 20260504201507 | 80 | 246 | 0.0 | 5.2 | 0.00 | 0.00 | 0.00 | 41 | 1010.9 |
| 20260504200002 | 79 | 231 | 0.9 | 7.0 | 0.00 | 0.00 | 0.00 | 41 | 1011.2 |
| 20260504194559 | 79 | 269 | 1.7 | 13.0 | 0.00 | 0.00 | 0.00 | 43 | 1011.4 |
| 20260504193056 | 79 | 148 | 0.0 | 8.7 | 0.00 | 0.00 | 0.00 | 41 | 1011.6 |
| 20260504191553 | 79 | 290 | 0.0 | 7.8 | 0.00 | 0.00 | 0.00 | 42 | 1011.8 |
| 20260504190047 | 79 | 160 | 0.0 | 7.0 | 0.00 | 0.00 | 0.00 | 43 | 1012.0 |
| 20260504184540 | 78 | 270 | 0.0 | 7.8 | 0.00 | 0.00 | 0.00 | 46 | 1012.1 |
| 20260504183036 | 78 | 247 | 0.0 | 10.4 | 0.00 | 0.00 | 0.00 | 45 | 1012.2 |
| 20260504181531 | 78 | 220 | 1.7 | 10.4 | 0.00 | 0.00 | 0.00 | 43 | 1012.3 |
| 20260504180026 | 77 | 214 | 0.0 | 8.7 | 0.00 | 0.00 | 0.00 | 45 | 1012.4 |
| 20260504174522 | 77 | 281 | 0.9 | 9.6 | 0.00 | 0.00 | 0.00 | 47 | 1012.5 |
| 20260504173018 | 77 | 176 | 0.0 | 1.7 | 0.00 | 0.00 | 0.00 | 49 | 1012.9 |
| 20260504171513 | 76 | 296 | 0.9 | 8.7 | 0.00 | 0.00 | 0.00 | 49 | 1013.0 |
| 20260504081536 | 52 | 205 | 0.0 | 0.0 | 0.00 | 0.00 | 0.00 | 1 | 1013.9 |
| 20260504044536 | 54 | 186 | 0.0 | 0.0 | 0.00 | 0.00 | 0.00 | 1 | 1015.2 |
| 20260504043031 | 55 | 186 | 0.0 | 0.0 | 0.00 | 0.00 | 0.00 | 1 | 1015.3 |
| 20260504041538 | 55 | 186 | 0.0 | 0.0 | 0.00 | 0.00 | 0.00 | 1 | 1015.4 |
| 20260504040023 | 55 | 186 | 0.0 | 0.0 | 0.00 | 0.00 | 0.00 | 1 | 1015.5 |
| 20260504034518 | 55 | 294 | 0.0 | 0.0 | 0.00 | 0.00 | 0.00 | 1 | 1015.7 |
| 20260504033013 | 55 | 294 | 0.0 | 0.0 | 0.00 | 0.00 | 0.00 | 1 | 1015.7 |
| 20260504031508 | 55 | 294 | 0.0 | 0.0 | 0.00 | 0.00 | 0.00 | 1 | 1015.7 |
| 20260504030004 | 54 | 294 | 0.0 | 0.0 | 0.00 | 0.00 | 0.00 | 1 | 1015.8 |
| 20260504024600 | 54 | 294 | 0.0 | 0.0 | 0.00 | 0.00 | 0.00 | 1 | 1015.7 |
| 20260504023055 | 55 | 294 | 0.0 | 0.0 | 0.00 | 0.00 | 0.00 | 1 | 1015.7 |
| 20260504021553 | 55 | 294 | 0.0 | 0.0 | 0.00 | 0.00 | 0.00 | 1 | 1015.6 |
| 20260504020049 | 56 | 294 | 0.0 | 0.0 | 0.00 | 0.00 | 0.00 | 1 | 1015.5 |
| 20260504014543 | 57 | 294 | 0.0 | 0.0 | 0.00 | 0.00 | 0.00 | 20 | 1015.3 |
| 20260504013054 | 59 | 294 | 0.0 | 0.0 | 0.00 | 0.00 | 0.00 | 23 | 1015.1 |
| 20260504011534 | 61 | 294 | 0.0 | 0.0 | 0.00 | 0.00 | 0.00 | 30 | 1015.1 |
| 20260504010032 | 63 | 294 | 0.0 | 0.0 | 0.00 | 0.00 | 0.00 | 42 | 1014.9 |
| 20260504004525 | 66 | 294 | 0.0 | 0.0 | 0.00 | 0.00 | 0.00 | 57 | 1014.8 |
| 20260504003020 | 72 | 294 | 0.0 | 0.0 | 0.00 | 0.00 | 0.00 | 55 | 1014.6 |
| 20260504001523 | 76 | 294 | 0.0 | 0.0 | 0.00 | 0.00 | 0.00 | 43 | 1014.6 |
| 20260504000012 | 76 | 294 | 0.0 | 0.0 | 0.00 | 0.00 | 0.00 | 48 | 1014.8 |
| 20260503234507 | 74 | 294 | 0.0 | 0.0 | 0.00 | 0.00 | 0.00 | 48 | 1014.9 |
| 20260503233007 | 74 | 291 | 0.0 | 0.0 | 0.00 | 0.00 | 0.00 | 40 | 1014.7 |
| 20260503231601 | 74 | 296 | 0.0 | 0.0 | 0.00 | 0.00 | 0.00 | 39 | 1014.9 |
| 20260503230058 | 74 | 265 | 0.0 | 0.0 | 0.00 | 0.00 | 0.00 | 35 | 1014.9 |
| 20260503224559 | 74 | 218 | 0.0 | 3.5 | 0.00 | 0.00 | 0.00 | 37 | 1015.2 |
| 20260503223046 | 74 | 272 | 0.0 | 0.0 | 0.00 | 0.00 | 0.00 | 36 | 1015.1 |
| 20260503221556 | 73 | 309 | 0.0 | 3.5 | 0.00 | 0.00 | 0.00 | 39 | 1015.2 |
| 20260503220037 | 73 | 295 | 0.0 | 9.6 | 0.00 | 0.00 | 0.00 | 38 | 1015.3 |
| 20260503214539 | 74 | 297 | 0.0 | 0.0 | 0.00 | 0.00 | 0.00 | 37 | 1015.4 |
| 20260503213028 | 75 | 302 | 0.0 | 0.0 | 0.00 | 0.00 | 0.00 | 36 | 1015.6 |
| 20260503211523 | 74 | 209 | 0.0 | 0.0 | 0.00 | 0.00 | 0.00 | 40 | 1015.8 |
| 20260503210019 | 73 | 167 | 0.0 | 4.3 | 0.00 | 0.00 | 0.00 | 39 | 1016.2 |